contact:dominique.lefevre@mio.osupytheas.fr, maurice.libes@osupytheas.fr, didier.mallarino@osupytheas.fr
Project:EMSO http://www.emso-fr.org/EMSO-France
Depth: 2436.0 m
Title:EMSO Ligure Ouest : Data MII capteur MICROCAT
DateTime_Computer,Latitude,Longitude,Temperature,Conductivity,Pressure,DateTime_Instrument
DateTime_Computer,Latitude,Longitude,degC,S m-1,dbar,DateTime_Instrument
2019-12-12T00:00:44Z,42.805,6.029,13.2961,4.59957,2469.797,2019-12-12T02:01:14Z
2019-12-12T00:03:47Z,42.805,6.029,13.2958,4.59956,2469.783,2019-12-12T02:04:17Z
2019-12-12T00:06:50Z,42.805,6.029,13.2959,4.59956,2469.76,2019-12-12T02:07:20Z
2019-12-12T00:09:54Z,42.805,6.029,13.2959,4.59956,2469.797,2019-12-12T02:10:23Z
2019-12-12T00:12:57Z,42.805,6.029,13.2961,4.59957,2469.806,2019-12-12T02:13:27Z
2019-12-12T00:16:00Z,42.805,6.029,13.2959,4.59956,2469.797,2019-12-12T02:16:30Z
2019-12-12T00:19:03Z,42.805,6.029,13.2960,4.59956,2469.773,2019-12-12T02:19:33Z
2019-12-12T00:22:06Z,42.805,6.029,13.2958,4.59956,2469.76,2019-12-12T02:22:36Z
2019-12-12T00:25:10Z,42.805,6.029,13.2961,4.59957,2469.773,2019-12-12T02:25:40Z
2019-12-12T00:28:13Z,42.805,6.029,13.2957,4.59956,2469.76,2019-12-12T02:28:43Z
2019-12-12T00:31:16Z,42.805,6.029,13.2963,4.59957,2469.773,2019-12-12T02:31:46Z
2019-12-12T00:34:19Z,42.805,6.029,13.2961,4.59956,2469.783,2019-12-12T02:34:49Z
2019-12-12T00:37:23Z,42.805,6.029,13.2958,4.59956,2469.773,2019-12-12T02:37:52Z
2019-12-12T00:40:26Z,42.805,6.029,13.2956,4.59956,2469.737,2019-12-12T02:40:56Z
2019-12-12T00:43:29Z,42.805,6.029,13.2958,4.59956,2469.76,2019-12-12T02:43:59Z
2019-12-12T00:46:32Z,42.805,6.029,13.2957,4.59956,2469.76,2019-12-12T02:47:02Z
2019-12-12T00:49:35Z,42.805,6.029,13.2960,4.59956,2469.783,2019-12-12T02:50:05Z
2019-12-12T00:52:38Z,42.805,6.029,13.2957,4.59957,2469.75,2019-12-12T02:53:08Z
2019-12-12T00:55:42Z,42.805,6.029,13.2961,4.59956,2469.76,2019-12-12T02:56:11Z
2019-12-12T00:58:45Z,42.805,6.029,13.2959,4.59956,2469.76,2019-12-12T02:59:15Z
2019-12-12T01:01:49Z,42.805,6.029,13.2956,4.59956,2469.783,2019-12-12T03:02:18Z
2019-12-12T01:04:52Z,42.805,6.029,13.2960,4.59956,2469.737,2019-12-12T03:05:22Z
2019-12-12T01:07:55Z,42.805,6.029,13.2958,4.59956,2469.773,2019-12-12T03:08:25Z
2019-12-12T01:10:58Z,42.805,6.029,13.2960,4.59957,2469.797,2019-12-12T03:11:28Z
2019-12-12T01:14:01Z,42.805,6.029,13.2957,4.59956,2469.773,2019-12-12T03:14:31Z
2019-12-12T01:17:05Z,42.805,6.029,13.2959,4.59957,2469.76,2019-12-12T03:17:34Z
2019-12-12T01:20:08Z,42.805,6.029,13.2957,4.59956,2469.806,2019-12-12T03:20:38Z
2019-12-12T01:23:11Z,42.805,6.029,13.2958,4.59956,2469.76,2019-12-12T03:23:41Z
2019-12-12T01:26:14Z,42.805,6.029,13.2961,4.59957,2469.806,2019-12-12T03:26:44Z
2019-12-12T01:29:17Z,42.805,6.029,13.2963,4.59957,2469.773,2019-12-12T03:29:47Z
2019-12-12T01:32:21Z,42.805,6.029,13.2959,4.59956,2469.737,2019-12-12T03:32:51Z
2019-12-12T01:35:24Z,42.805,6.029,13.2958,4.59956,2469.76,2019-12-12T03:35:54Z
2019-12-12T01:38:27Z,42.805,6.029,13.2960,4.59956,2469.76,2019-12-12T03:38:57Z
2019-12-12T01:41:31Z,42.805,6.029,13.2958,4.59956,2469.76,2019-12-12T03:42:00Z
2019-12-12T01:44:34Z,42.805,6.029,13.2957,4.59957,2469.797,2019-12-12T03:45:04Z
2019-12-12T01:47:37Z,42.805,6.029,13.2960,4.59956,2469.806,2019-12-12T03:48:07Z
2019-12-12T01:50:40Z,42.805,6.029,13.2957,4.59958,2469.797,2019-12-12T03:51:10Z
2019-12-12T01:53:43Z,42.805,6.029,13.2958,4.59956,2469.76,2019-12-12T03:54:13Z
2019-12-12T01:56:47Z,42.805,6.029,13.2957,4.59956,2469.783,2019-12-12T03:57:16Z
2019-12-12T01:59:50Z,42.805,6.029,13.2958,4.59957,2469.783,2019-12-12T04:00:20Z
2019-12-12T02:02:53Z,42.805,6.029,13.2961,4.59958,2469.806,2019-12-12T04:03:23Z
2019-12-12T02:05:56Z,42.805,6.029,13.2960,4.59956,2469.783,2019-12-12T04:06:26Z
2019-12-12T02:08:59Z,42.805,6.029,13.2955,4.59956,2469.75,2019-12-12T04:09:29Z
2019-12-12T02:12:03Z,42.805,6.029,13.2961,4.59957,2469.783,2019-12-12T04:12:33Z
2019-12-12T02:15:06Z,42.805,6.029,13.2959,4.59957,2469.797,2019-12-12T04:15:36Z
2019-12-12T02:18:09Z,42.805,6.029,13.2963,4.59957,2469.76,2019-12-12T04:18:39Z
2019-12-12T02:21:12Z,42.805,6.029,13.2958,4.59956,2469.76,2019-12-12T04:21:42Z
2019-12-12T02:24:15Z,42.805,6.029,13.2954,4.59956,2469.797,2019-12-12T04:24:45Z
2019-12-12T02:27:19Z,42.805,6.029,13.2959,4.59957,2469.783,2019-12-12T04:27:48Z
2019-12-12T02:30:22Z,42.805,6.029,13.2958,4.59956,2469.844,2019-12-12T04:30:52Z
2019-12-12T02:33:25Z,42.805,6.029,13.2961,4.59958,2469.806,2019-12-12T04:33:55Z
2019-12-12T02:36:28Z,42.805,6.029,13.2958,4.59956,2469.783,2019-12-12T04:36:58Z
2019-12-12T02:39:31Z,42.805,6.029,13.2959,4.59956,2469.806,2019-12-12T04:40:01Z
2019-12-12T02:42:35Z,42.805,6.029,13.2959,4.59956,2469.844,2019-12-12T04:43:04Z
2019-12-12T02:45:38Z,42.805,6.029,13.2964,4.59956,2469.783,2019-12-12T04:46:08Z
2019-12-12T02:48:41Z,42.805,6.029,13.2957,4.59956,2469.806,2019-12-12T04:49:11Z
2019-12-12T02:51:44Z,42.805,6.029,13.2958,4.59956,2469.806,2019-12-12T04:52:14Z
2019-12-12T02:54:47Z,42.805,6.029,13.2957,4.59957,2469.783,2019-12-12T04:55:17Z
2019-12-12T02:57:51Z,42.805,6.029,13.2957,4.59956,2469.844,2019-12-12T04:58:20Z
2019-12-12T03:00:54Z,42.805,6.029,13.2957,4.59957,2469.821,2019-12-12T05:01:24Z
2019-12-12T03:03:57Z,42.805,6.029,13.2958,4.59958,2469.821,2019-12-12T05:04:27Z
2019-12-12T03:07:00Z,42.805,6.029,13.2961,4.59957,2469.797,2019-12-12T05:07:30Z
2019-12-12T03:10:03Z,42.805,6.029,13.2957,4.59956,2469.83,2019-12-12T05:10:33Z
2019-12-12T03:13:07Z,42.805,6.029,13.2961,4.59957,2469.83,2019-12-12T05:13:36Z
2019-12-12T03:16:10Z,42.805,6.029,13.2963,4.59957,2469.806,2019-12-12T05:16:40Z
2019-12-12T03:19:13Z,42.805,6.029,13.2960,4.59956,2469.783,2019-12-12T05:19:43Z
2019-12-12T03:22:16Z,42.805,6.029,13.2961,4.59957,2469.806,2019-12-12T05:22:46Z
2019-12-12T03:25:19Z,42.805,6.029,13.2960,4.59957,2469.867,2019-12-12T05:25:49Z
2019-12-12T03:28:23Z,42.805,6.029,13.2957,4.59956,2469.844,2019-12-12T05:28:53Z
2019-12-12T03:31:26Z,42.805,6.029,13.2959,4.59956,2469.793,2019-12-12T05:31:56Z
2019-12-12T03:34:29Z,42.805,6.029,13.2957,4.59956,2469.844,2019-12-12T05:34:59Z
2019-12-12T03:37:32Z,42.805,6.029,13.2958,4.59957,2469.83,2019-12-12T05:38:02Z
2019-12-12T03:40:35Z,42.805,6.029,13.2958,4.59956,2469.83,2019-12-12T05:41:05Z
2019-12-12T03:43:39Z,42.805,6.029,13.2958,4.59956,2469.876,2019-12-12T05:44:08Z
2019-12-12T03:46:42Z,42.805,6.029,13.2961,4.59956,2469.83,2019-12-12T05:47:12Z
2019-12-12T03:49:45Z,42.805,6.029,13.2960,4.59956,2469.853,2019-12-12T05:50:15Z
2019-12-12T03:52:48Z,42.805,6.029,13.2958,4.59956,2469.844,2019-12-12T05:53:18Z
2019-12-12T03:55:51Z,42.805,6.029,13.2959,4.59956,2469.853,2019-12-12T05:56:21Z
2019-12-12T03:58:55Z,42.805,6.029,13.2960,4.59958,2469.83,2019-12-12T05:59:25Z
2019-12-12T04:01:58Z,42.805,6.029,13.2958,4.59957,2469.867,2019-12-12T06:02:28Z
2019-12-12T04:05:01Z,42.805,6.029,13.2959,4.59956,2469.867,2019-12-12T06:05:31Z
2019-12-12T04:08:04Z,42.805,6.029,13.2956,4.59957,2469.876,2019-12-12T06:08:34Z
2019-12-12T04:11:07Z,42.805,6.029,13.2960,4.59956,2469.876,2019-12-12T06:11:37Z
2019-12-12T04:14:11Z,42.805,6.029,13.2964,4.59957,2469.89,2019-12-12T06:14:41Z
2019-12-12T04:17:14Z,42.805,6.029,13.2963,4.59956,2469.853,2019-12-12T06:17:44Z
2019-12-12T04:20:17Z,42.805,6.029,13.2959,4.59957,2469.876,2019-12-12T06:20:47Z
2019-12-12T04:23:20Z,42.805,6.029,13.2959,4.59956,2469.89,2019-12-12T06:23:50Z
2019-12-12T04:26:23Z,42.805,6.029,13.2957,4.59956,2469.89,2019-12-12T06:26:53Z
2019-12-12T04:29:27Z,42.805,6.029,13.2957,4.59957,2469.867,2019-12-12T06:29:56Z
2019-12-12T04:32:30Z,42.805,6.029,13.2962,4.59958,2469.867,2019-12-12T06:33:00Z
2019-12-12T04:35:33Z,42.805,6.029,13.2961,4.59957,2469.914,2019-12-12T06:36:03Z
2019-12-12T04:38:36Z,42.805,6.029,13.2961,4.59957,2469.914,2019-12-12T06:39:06Z
2019-12-12T04:41:40Z,42.805,6.029,13.2960,4.59956,2469.9,2019-12-12T06:42:10Z
2019-12-12T04:44:43Z,42.805,6.029,13.2960,4.59957,2469.9,2019-12-12T06:45:13Z
2019-12-12T04:47:46Z,42.805,6.029,13.2958,4.59956,2469.9,2019-12-12T06:48:16Z
2019-12-12T04:50:49Z,42.805,6.029,13.2957,4.59956,2469.914,2019-12-12T06:51:19Z
2019-12-12T04:53:53Z,42.805,6.029,13.2962,4.59957,2469.876,2019-12-12T06:54:22Z
2019-12-12T04:56:56Z,42.805,6.029,13.2959,4.59957,2469.914,2019-12-12T06:57:26Z
2019-12-12T04:59:59Z,42.805,6.029,13.2959,4.59957,2469.937,2019-12-12T07:00:29Z
2019-12-12T05:03:02Z,42.805,6.029,13.2961,4.59957,2469.886,2019-12-12T07:03:32Z
2019-12-12T05:06:05Z,42.805,6.029,13.2958,4.59958,2469.923,2019-12-12T07:06:35Z
2019-12-12T05:09:09Z,42.805,6.029,13.2965,4.59957,2469.9,2019-12-12T07:09:38Z
2019-12-12T05:12:12Z,42.805,6.029,13.2958,4.59958,2469.937,2019-12-12T07:12:42Z
2019-12-12T05:15:15Z,42.805,6.029,13.2961,4.59958,2469.923,2019-12-12T07:15:45Z
2019-12-12T05:18:18Z,42.805,6.029,13.2960,4.59957,2469.96,2019-12-12T07:18:48Z
2019-12-12T05:21:21Z,42.805,6.029,13.2954,4.59957,2469.947,2019-12-12T07:21:51Z
2019-12-12T05:24:24Z,42.805,6.029,13.2959,4.59958,2469.96,2019-12-12T07:24:54Z
2019-12-12T05:27:28Z,42.805,6.029,13.2959,4.59958,2469.947,2019-12-12T07:27:57Z
2019-12-12T05:30:31Z,42.805,6.029,13.2957,4.59957,2469.947,2019-12-12T07:31:01Z
2019-12-12T05:33:34Z,42.805,6.029,13.2959,4.59957,2469.984,2019-12-12T07:34:04Z
2019-12-12T05:36:37Z,42.805,6.029,13.2964,4.59958,2469.984,2019-12-12T07:37:07Z
2019-12-12T05:39:40Z,42.805,6.029,13.2960,4.59958,2469.97,2019-12-12T07:40:10Z
2019-12-12T05:42:44Z,42.805,6.029,13.2960,4.59958,2469.947,2019-12-12T07:43:13Z
2019-12-12T05:45:47Z,42.805,6.029,13.2962,4.59957,2469.97,2019-12-12T07:46:17Z
2019-12-12T05:48:50Z,42.805,6.029,13.2958,4.59958,2469.984,2019-12-12T07:49:20Z
2019-12-12T05:51:53Z,42.805,6.029,13.2963,4.59957,2469.97,2019-12-12T07:52:23Z
2019-12-12T05:54:56Z,42.805,6.029,13.2959,4.59958,2469.993,2019-12-12T07:55:26Z
2019-12-12T05:58:00Z,42.805,6.029,13.2960,4.59958,2470.007,2019-12-12T07:58:30Z
2019-12-12T06:01:03Z,42.805,6.029,13.2961,4.59957,2470.007,2019-12-12T08:01:33Z
2019-12-12T06:04:06Z,42.805,6.029,13.2958,4.59958,2470.017,2019-12-12T08:04:36Z
2019-12-12T06:07:09Z,42.805,6.029,13.2960,4.59957,2469.993,2019-12-12T08:07:39Z
2019-12-12T06:10:13Z,42.805,6.029,13.2960,4.59957,2469.97,2019-12-12T08:10:42Z
2019-12-12T06:13:16Z,42.805,6.029,13.2961,4.59958,2470.007,2019-12-12T08:13:46Z
2019-12-12T06:16:19Z,42.805,6.029,13.2962,4.59957,2469.97,2019-12-12T08:16:49Z
2019-12-12T06:19:22Z,42.805,6.029,13.2957,4.59958,2469.984,2019-12-12T08:19:52Z
2019-12-12T06:22:26Z,42.805,6.029,13.2957,4.59957,2469.984,2019-12-12T08:22:55Z
2019-12-12T06:25:29Z,42.805,6.029,13.2962,4.59958,2469.97,2019-12-12T08:25:59Z
2019-12-12T06:28:32Z,42.805,6.029,13.2965,4.59957,2469.993,2019-12-12T08:29:02Z
2019-12-12T06:31:35Z,42.805,6.029,13.2957,4.59958,2469.993,2019-12-12T08:32:05Z
2019-12-12T06:34:38Z,42.805,6.029,13.2961,4.59958,2469.993,2019-12-12T08:35:08Z
2019-12-12T06:37:42Z,42.805,6.029,13.2963,4.59958,2469.993,2019-12-12T08:38:11Z
2019-12-12T06:40:45Z,42.805,6.029,13.2963,4.59958,2469.993,2019-12-12T08:41:15Z
2019-12-12T06:43:48Z,42.805,6.029,13.2964,4.59958,2470.03,2019-12-12T08:44:18Z
2019-12-12T06:46:51Z,42.805,6.029,13.2960,4.59958,2469.993,2019-12-12T08:47:21Z
2019-12-12T06:49:54Z,42.805,6.029,13.2961,4.59958,2469.984,2019-12-12T08:50:24Z
2019-12-12T06:52:57Z,42.805,6.029,13.2963,4.59959,2469.993,2019-12-12T08:53:27Z
2019-12-12T06:56:01Z,42.805,6.029,13.2963,4.59958,2470.017,2019-12-12T08:56:31Z
2019-12-12T06:59:04Z,42.805,6.029,13.2964,4.59958,2470.007,2019-12-12T08:59:34Z
2019-12-12T07:02:07Z,42.805,6.029,13.2964,4.59958,2469.97,2019-12-12T09:02:37Z
2019-12-12T07:05:10Z,42.805,6.029,13.2958,4.59958,2469.993,2019-12-12T09:05:40Z
2019-12-12T07:08:14Z,42.805,6.029,13.2964,4.59959,2470.03,2019-12-12T09:08:43Z
2019-12-12T07:11:17Z,42.805,6.029,13.2961,4.59958,2470.017,2019-12-12T09:11:47Z
2019-12-12T07:14:20Z,42.805,6.029,13.2959,4.59960,2470.017,2019-12-12T09:14:50Z
2019-12-12T07:17:23Z,42.805,6.029,13.2960,4.59958,2470.03,2019-12-12T09:17:53Z
2019-12-12T07:20:26Z,42.805,6.029,13.2960,4.59958,2470.04,2019-12-12T09:20:56Z
2019-12-12T07:23:29Z,42.805,6.029,13.2960,4.59958,2470.017,2019-12-12T09:23:59Z
2019-12-12T07:26:33Z,42.805,6.029,13.2958,4.59958,2470.03,2019-12-12T09:27:02Z
2019-12-12T07:29:36Z,42.805,6.029,13.2959,4.59958,2469.993,2019-12-12T09:30:06Z
2019-12-12T07:32:39Z,42.805,6.029,13.2961,4.59958,2470.007,2019-12-12T09:33:09Z
2019-12-12T07:35:42Z,42.805,6.029,13.2961,4.59958,2470.053,2019-12-12T09:36:12Z
2019-12-12T07:38:46Z,42.805,6.029,13.2961,4.59958,2470.017,2019-12-12T09:39:15Z
2019-12-12T07:41:49Z,42.805,6.029,13.2959,4.59960,2470.03,2019-12-12T09:42:19Z
2019-12-12T07:44:52Z,42.805,6.029,13.2958,4.59960,2470.017,2019-12-12T09:45:22Z
2019-12-12T07:47:55Z,42.805,6.029,13.2960,4.59959,2470.04,2019-12-12T09:48:25Z
2019-12-12T07:50:59Z,42.805,6.029,13.2963,4.59958,2469.97,2019-12-12T09:51:28Z
2019-12-12T07:54:02Z,42.805,6.029,13.2961,4.59959,2470.007,2019-12-12T09:54:32Z
2019-12-12T07:57:05Z,42.805,6.029,13.2960,4.59958,2470.053,2019-12-12T09:57:35Z
2019-12-12T08:00:08Z,42.805,6.029,13.2967,4.59958,2470.017,2019-12-12T10:00:38Z
2019-12-12T08:03:11Z,42.805,6.029,13.2960,4.59961,2470.017,2019-12-12T10:03:41Z
2019-12-12T08:06:15Z,42.805,6.029,13.2960,4.59960,2470.03,2019-12-12T10:06:44Z
2019-12-12T08:09:18Z,42.805,6.029,13.2963,4.59958,2470.017,2019-12-12T10:09:48Z
2019-12-12T08:12:21Z,42.805,6.029,13.2961,4.59960,2470.04,2019-12-12T10:12:51Z
2019-12-12T08:15:24Z,42.805,6.029,13.2963,4.59959,2470.03,2019-12-12T10:15:54Z
2019-12-12T08:18:27Z,42.805,6.029,13.2961,4.59959,2470.03,2019-12-12T10:18:57Z
2019-12-12T08:21:31Z,42.805,6.029,13.2959,4.59961,2470.007,2019-12-12T10:22:00Z
2019-12-12T08:24:34Z,42.805,6.029,13.2964,4.59960,2470.007,2019-12-12T10:25:04Z
2019-12-12T08:27:37Z,42.805,6.029,13.2958,4.59959,2469.97,2019-12-12T10:28:07Z
2019-12-12T08:30:40Z,42.805,6.029,13.2959,4.59959,2469.993,2019-12-12T10:31:10Z
2019-12-12T08:33:43Z,42.805,6.029,13.2964,4.59960,2470.017,2019-12-12T10:34:13Z
2019-12-12T08:36:46Z,42.805,6.029,13.2964,4.59960,2470.007,2019-12-12T10:37:16Z
2019-12-12T08:39:50Z,42.805,6.029,13.2960,4.59958,2470.017,2019-12-12T10:40:20Z
2019-12-12T08:42:53Z,42.805,6.029,13.2961,4.59961,2470.03,2019-12-12T10:43:23Z
2019-12-12T08:45:56Z,42.805,6.029,13.2961,4.59960,2469.993,2019-12-12T10:46:26Z
2019-12-12T08:48:59Z,42.805,6.029,13.2958,4.59959,2470.017,2019-12-12T10:49:29Z
2019-12-12T08:52:02Z,42.805,6.029,13.2962,4.59961,2469.97,2019-12-12T10:52:32Z
2019-12-12T08:55:06Z,42.805,6.029,13.2960,4.59960,2469.993,2019-12-12T10:55:35Z
2019-12-12T08:58:09Z,42.805,6.029,13.2961,4.59960,2469.993,2019-12-12T10:58:39Z
2019-12-12T09:01:12Z,42.805,6.029,13.2962,4.59959,2469.97,2019-12-12T11:01:42Z
2019-12-12T09:04:15Z,42.805,6.029,13.2960,4.59960,2470.007,2019-12-12T11:04:45Z
2019-12-12T09:07:18Z,42.805,6.029,13.2963,4.59960,2469.947,2019-12-12T11:07:48Z
2019-12-12T09:10:22Z,42.805,6.029,13.2961,4.59959,2469.97,2019-12-12T11:10:51Z
2019-12-12T09:13:25Z,42.805,6.029,13.2961,4.59961,2469.984,2019-12-12T11:13:55Z
2019-12-12T09:16:28Z,42.805,6.029,13.2963,4.59960,2469.993,2019-12-12T11:16:58Z
2019-12-12T09:19:31Z,42.805,6.029,13.2961,4.59960,2469.97,2019-12-12T11:20:01Z
2019-12-12T09:22:34Z,42.805,6.029,13.2962,4.59960,2469.947,2019-12-12T11:23:04Z
2019-12-12T09:25:37Z,42.805,6.029,13.2958,4.59959,2469.97,2019-12-12T11:26:07Z
2019-12-12T09:28:41Z,42.805,6.029,13.2960,4.59960,2469.97,2019-12-12T11:29:10Z
2019-12-12T09:31:44Z,42.805,6.029,13.2963,4.59960,2469.97,2019-12-12T11:32:14Z
2019-12-12T09:34:47Z,42.805,6.029,13.2960,4.59959,2469.923,2019-12-12T11:35:17Z
2019-12-12T09:37:50Z,42.805,6.029,13.2960,4.59960,2469.97,2019-12-12T11:38:20Z
2019-12-12T09:40:54Z,42.805,6.029,13.2962,4.59960,2469.96,2019-12-12T11:41:23Z
2019-12-12T09:43:57Z,42.805,6.029,13.2963,4.59960,2469.993,2019-12-12T11:44:27Z
2019-12-12T09:47:00Z,42.805,6.029,13.2964,4.59958,2470.007,2019-12-12T11:47:30Z
2019-12-12T09:50:03Z,42.805,6.029,13.2964,4.59961,2469.923,2019-12-12T11:50:33Z
2019-12-12T09:53:06Z,42.805,6.029,13.2963,4.59960,2469.923,2019-12-12T11:53:36Z
2019-12-12T09:56:10Z,42.805,6.029,13.2959,4.59959,2469.947,2019-12-12T11:56:39Z
2019-12-12T09:59:13Z,42.805,6.029,13.2959,4.59961,2469.993,2019-12-12T11:59:43Z
2019-12-12T10:02:16Z,42.805,6.029,13.2961,4.59960,2469.96,2019-12-12T12:02:46Z
2019-12-12T10:05:19Z,42.805,6.029,13.2964,4.59960,2469.923,2019-12-12T12:05:49Z
2019-12-12T10:08:23Z,42.805,6.029,13.2959,4.59960,2469.923,2019-12-12T12:08:52Z
2019-12-12T10:11:26Z,42.805,6.029,13.2964,4.59960,2469.947,2019-12-12T12:11:56Z
2019-12-12T10:14:29Z,42.805,6.029,13.2963,4.59960,2469.947,2019-12-12T12:14:59Z
2019-12-12T10:17:32Z,42.805,6.029,13.2960,4.59961,2469.937,2019-12-12T12:18:02Z
2019-12-12T10:20:35Z,42.805,6.029,13.2966,4.59960,2469.947,2019-12-12T12:21:05Z
2019-12-12T10:23:39Z,42.805,6.029,13.2962,4.59961,2469.96,2019-12-12T12:24:08Z
2019-12-12T10:26:42Z,42.805,6.029,13.2961,4.59960,2469.9,2019-12-12T12:27:12Z
2019-12-12T10:29:45Z,42.805,6.029,13.2964,4.59960,2469.937,2019-12-12T12:30:15Z
2019-12-12T10:32:48Z,42.805,6.029,13.2960,4.59961,2469.937,2019-12-12T12:33:18Z
2019-12-12T10:35:51Z,42.805,6.029,13.2961,4.59961,2469.9,2019-12-12T12:36:21Z
2019-12-12T10:38:55Z,42.805,6.029,13.2961,4.59961,2469.923,2019-12-12T12:39:24Z
2019-12-12T10:41:58Z,42.805,6.029,13.2961,4.59961,2469.876,2019-12-12T12:42:28Z
2019-12-12T10:45:01Z,42.805,6.029,13.2963,4.59961,2469.923,2019-12-12T12:45:31Z
2019-12-12T10:48:04Z,42.805,6.029,13.2961,4.59960,2469.923,2019-12-12T12:48:34Z
2019-12-12T10:51:07Z,42.805,6.029,13.2961,4.59960,2469.9,2019-12-12T12:51:37Z
2019-12-12T10:54:11Z,42.805,6.029,13.2961,4.59959,2469.923,2019-12-12T12:54:40Z
2019-12-12T10:57:14Z,42.805,6.029,13.2958,4.59960,2469.876,2019-12-12T12:57:44Z
2019-12-12T11:00:17Z,42.805,6.029,13.2961,4.59960,2469.9,2019-12-12T13:00:47Z
2019-12-12T11:03:20Z,42.805,6.029,13.2963,4.59960,2469.886,2019-12-12T13:03:50Z
2019-12-12T11:06:23Z,42.805,6.029,13.2962,4.59960,2469.937,2019-12-12T13:06:53Z
2019-12-12T11:09:27Z,42.805,6.029,13.2960,4.59961,2469.876,2019-12-12T13:09:56Z
2019-12-12T11:12:30Z,42.805,6.029,13.2961,4.59960,2469.876,2019-12-12T13:13:00Z
2019-12-12T11:15:33Z,42.805,6.029,13.2960,4.59960,2469.9,2019-12-12T13:16:03Z
2019-12-12T11:18:36Z,42.805,6.029,13.2961,4.59959,2469.9,2019-12-12T13:19:06Z
2019-12-12T11:21:39Z,42.805,6.029,13.2965,4.59960,2469.876,2019-12-12T13:22:09Z
2019-12-12T11:24:43Z,42.805,6.029,13.2963,4.59960,2469.89,2019-12-12T13:25:12Z
2019-12-12T11:27:46Z,42.805,6.029,13.2964,4.59960,2469.876,2019-12-12T13:28:16Z
2019-12-12T11:30:49Z,42.805,6.029,13.2961,4.59960,2469.876,2019-12-12T13:31:19Z
2019-12-12T11:33:52Z,42.805,6.029,13.2961,4.59960,2469.89,2019-12-12T13:34:22Z
2019-12-12T11:36:55Z,42.805,6.029,13.2962,4.59960,2469.9,2019-12-12T13:37:25Z
2019-12-12T11:39:59Z,42.805,6.029,13.2961,4.59960,2469.853,2019-12-12T13:40:28Z
2019-12-12T11:43:02Z,42.805,6.029,13.2961,4.59960,2469.853,2019-12-12T13:43:32Z
2019-12-12T11:46:05Z,42.805,6.029,13.2959,4.59960,2469.853,2019-12-12T13:46:35Z
2019-12-12T11:49:08Z,42.805,6.029,13.2964,4.59959,2469.867,2019-12-12T13:49:38Z
2019-12-12T11:52:12Z,42.805,6.029,13.2961,4.59960,2469.876,2019-12-12T13:52:41Z
2019-12-12T11:55:15Z,42.805,6.029,13.2957,4.59960,2469.853,2019-12-12T13:55:45Z
2019-12-12T11:58:18Z,42.805,6.029,13.2964,4.59961,2469.89,2019-12-12T13:58:48Z
2019-12-12T12:01:22Z,42.805,6.029,13.2958,4.59959,2469.83,2019-12-12T14:01:51Z
2019-12-12T12:04:25Z,42.805,6.029,13.2964,4.59960,2469.83,2019-12-12T14:04:55Z
2019-12-12T12:07:28Z,42.805,6.029,13.2959,4.59960,2469.867,2019-12-12T14:07:58Z
2019-12-12T12:10:31Z,42.805,6.029,13.2962,4.59960,2469.853,2019-12-12T14:11:01Z
2019-12-12T12:13:34Z,42.805,6.029,13.2960,4.59958,2469.844,2019-12-12T14:14:04Z
2019-12-12T12:16:38Z,42.805,6.029,13.2961,4.59959,2469.844,2019-12-12T14:17:07Z
2019-12-12T12:19:41Z,42.805,6.029,13.2963,4.59958,2469.844,2019-12-12T14:20:11Z
2019-12-12T12:22:44Z,42.805,6.029,13.2964,4.59960,2469.853,2019-12-12T14:23:14Z
2019-12-12T12:25:47Z,42.805,6.029,13.2958,4.59960,2469.844,2019-12-12T14:26:17Z
2019-12-12T12:28:50Z,42.805,6.029,13.2959,4.59960,2469.83,2019-12-12T14:29:20Z
2019-12-12T12:31:54Z,42.805,6.029,13.2964,4.59960,2469.806,2019-12-12T14:32:23Z
2019-12-12T12:34:57Z,42.805,6.029,13.2965,4.59960,2469.867,2019-12-12T14:35:27Z
2019-12-12T12:38:00Z,42.805,6.029,13.2962,4.59960,2469.853,2019-12-12T14:38:30Z
2019-12-12T12:41:03Z,42.805,6.029,13.2964,4.59961,2469.83,2019-12-12T14:41:33Z
2019-12-12T12:44:06Z,42.805,6.029,13.2959,4.59960,2469.83,2019-12-12T14:44:36Z
2019-12-12T12:47:10Z,42.805,6.029,13.2962,4.59958,2469.844,2019-12-12T14:47:39Z
2019-12-12T12:50:13Z,42.805,6.029,13.2960,4.59958,2469.83,2019-12-12T14:50:43Z
2019-12-12T12:53:16Z,42.805,6.029,13.2962,4.59958,2469.844,2019-12-12T14:53:46Z
2019-12-12T12:56:19Z,42.805,6.029,13.2959,4.59958,2469.816,2019-12-12T14:56:49Z
2019-12-12T12:59:22Z,42.805,6.029,13.2964,4.59958,2469.806,2019-12-12T14:59:52Z
2019-12-12T13:02:26Z,42.805,6.029,13.2959,4.59959,2469.806,2019-12-12T15:02:55Z
2019-12-12T13:05:29Z,42.805,6.029,13.2961,4.59958,2469.844,2019-12-12T15:05:59Z
2019-12-12T13:08:32Z,42.805,6.029,13.2961,4.59959,2469.797,2019-12-12T15:09:02Z
2019-12-12T13:11:35Z,42.805,6.029,13.2961,4.59959,2469.821,2019-12-12T15:12:05Z
2019-12-12T13:14:38Z,42.805,6.029,13.2960,4.59959,2469.821,2019-12-12T15:15:08Z
2019-12-12T13:17:42Z,42.805,6.029,13.2963,4.59958,2469.806,2019-12-12T15:18:11Z
2019-12-12T13:20:45Z,42.805,6.029,13.2961,4.59959,2469.821,2019-12-12T15:21:15Z
2019-12-12T13:23:48Z,42.805,6.029,13.2963,4.59960,2469.797,2019-12-12T15:24:18Z
2019-12-12T13:26:51Z,42.805,6.029,13.2961,4.59960,2469.806,2019-12-12T15:27:21Z
2019-12-12T13:29:54Z,42.805,6.029,13.2961,4.59959,2469.821,2019-12-12T15:30:24Z
2019-12-12T13:32:58Z,42.805,6.029,13.2958,4.59960,2469.783,2019-12-12T15:33:27Z
2019-12-12T13:36:01Z,42.805,6.029,13.2960,4.59958,2469.76,2019-12-12T15:36:31Z
2019-12-12T13:39:04Z,42.805,6.029,13.2965,4.59959,2469.821,2019-12-12T15:39:34Z
2019-12-12T13:42:07Z,42.805,6.029,13.2964,4.59959,2469.821,2019-12-12T15:42:37Z
2019-12-12T13:45:10Z,42.805,6.029,13.2964,4.59959,2469.773,2019-12-12T15:45:40Z
2019-12-12T13:48:14Z,42.805,6.029,13.2960,4.59960,2469.821,2019-12-12T15:48:43Z
2019-12-12T13:51:17Z,42.805,6.029,13.2963,4.59960,2469.783,2019-12-12T15:51:47Z
2019-12-12T13:54:20Z,42.805,6.029,13.2961,4.59958,2469.773,2019-12-12T15:54:50Z
2019-12-12T13:57:23Z,42.805,6.029,13.2961,4.59959,2469.806,2019-12-12T15:57:53Z
2019-12-12T14:00:26Z,42.805,6.029,13.2964,4.59961,2469.797,2019-12-12T16:00:56Z
2019-12-12T14:03:30Z,42.805,6.029,13.2961,4.59960,2469.797,2019-12-12T16:03:59Z
2019-12-12T14:06:33Z,42.805,6.029,13.2961,4.59960,2469.797,2019-12-12T16:07:03Z
2019-12-12T14:09:36Z,42.805,6.029,13.2963,4.59960,2469.76,2019-12-12T16:10:06Z
2019-12-12T14:12:39Z,42.805,6.029,13.2962,4.59961,2469.806,2019-12-12T16:13:09Z
2019-12-12T14:15:42Z,42.805,6.029,13.2960,4.59958,2469.821,2019-12-12T16:16:12Z
2019-12-12T14:18:46Z,42.805,6.029,13.2960,4.59960,2469.783,2019-12-12T16:19:15Z
2019-12-12T14:21:49Z,42.805,6.029,13.2964,4.59960,2469.806,2019-12-12T16:22:19Z
2019-12-12T14:24:52Z,42.805,6.029,13.2962,4.59959,2469.783,2019-12-12T16:25:22Z
2019-12-12T14:27:55Z,42.805,6.029,13.2963,4.59960,2469.797,2019-12-12T16:28:25Z
2019-12-12T14:30:58Z,42.805,6.029,13.2959,4.59960,2469.793,2019-12-12T16:31:28Z
2019-12-12T14:34:02Z,42.805,6.029,13.2963,4.59960,2469.797,2019-12-12T16:34:31Z
2019-12-12T14:37:05Z,42.805,6.029,13.2961,4.59961,2469.806,2019-12-12T16:37:35Z
2019-12-12T14:40:08Z,42.805,6.029,13.2963,4.59961,2469.773,2019-12-12T16:40:38Z
2019-12-12T14:43:11Z,42.805,6.029,13.2961,4.59961,2469.797,2019-12-12T16:43:41Z
2019-12-12T14:46:14Z,42.805,6.029,13.2961,4.59960,2469.797,2019-12-12T16:46:44Z
2019-12-12T14:49:18Z,42.805,6.029,13.2961,4.59961,2469.797,2019-12-12T16:49:47Z
2019-12-12T14:52:21Z,42.805,6.029,13.2961,4.59961,2469.783,2019-12-12T16:52:51Z
2019-12-12T14:55:24Z,42.805,6.029,13.2962,4.59960,2469.76,2019-12-12T16:55:54Z
2019-12-12T14:58:28Z,42.805,6.029,13.2964,4.59961,2469.797,2019-12-12T16:58:57Z
2019-12-12T15:01:31Z,42.805,6.029,13.2965,4.59961,2469.76,2019-12-12T17:02:01Z